This demonstration page uses our WeatherBlox Daily Observations layout. Learn more.

Left ArrowRight Arrow

39.92423, -83.80882

Hourly Observations for July 27, 2022

Temp ( °F °C ) Dew Point ( °F °C ) Humidity (%) Winds ( mph kmh ) Pressure ( in mb ) Visibility ( mi km ) Precip ( " mm )
12:06 am 00:06 Cloudy 68 20 N/A N/A SSE 3 6 29.99 1016 10 16 0.00 0.00
12:56 am 00:56 Cloudy 68 20 N/A N/A Calm 30.01 1016 7 11 0.00 0.00
1:56 am 01:56 Cloudy with Haze N/A N/A N/A SE 3 6 N/A 5 8 0.00 0.00
2:56 am 02:56 Cloudy with Haze N/A N/A N/A Calm N/A 5 8 0.00 0.00
3:31 am 03:31 Cloudy with Haze N/A N/A N/A Calm N/A 4 6 0.00 0.00
3:56 am 03:56 Mostly Cloudy with Haze N/A N/A N/A S 3 6 N/A 4 6 0.00 0.00
4:56 am 04:56 Mostly Clear with Mist and Fog N/A N/A N/A Calm N/A 3 5 0.00 0.00
5:03 am 05:03 Mostly Clear with Mist and Fog N/A N/A N/A S 3 6 N/A 3 4 0.00 0.00
5:16 am 05:16 Clear with Mist and Fog N/A N/A N/A Calm N/A 1 2 0.00 0.00
5:19 am 05:19 Mostly Cloudy with Mist and Fog N/A N/A N/A ESE 3 6 N/A 1 1 0.00 0.00
5:29 am 05:29 Partly Cloudy with Mist and Fog 64 18 N/A N/A SSE 5 7 29.94 1014 1 2 0.00 0.00
5:48 am 05:48 Mostly Clear with Mist and Fog 66 19 N/A N/A SSE 3 6 29.94 1014 2 3 0.01 0.25
5:56 am 05:56 Clear with Mist and Fog N/A N/A N/A SSE 5 7 N/A 1 2 0.01 0.25
6:13 am 06:13 Mostly Clear with Mist and Fog N/A N/A N/A S 5 7 N/A 2 3 0.00 0.00
6:56 am 06:56 Mostly Cloudy with Mist and Fog 66 19 N/A N/A E 3 6 29.93 1014 1 2 0.00 0.00
7:38 am 07:38 Mostly Cloudy with Mist and Fog 70 21 N/A N/A Calm 29.93 1013 2 3 0.00 0.00
7:56 am 07:56 Cloudy with Mist and Fog 70 21 N/A N/A Calm 29.96 1015 3 4 0.00 0.00
8:17 am 08:17 Cloudy with Light Rain 70 21 N/A N/A Calm 29.93 1013 2 3 0.00 0.00
8:33 am 08:33 Cloudy with Nearby Thunderstorms 70 21 N/A N/A S 3 6 29.94 1014 2 3 0.00 0.00
8:41 am 08:41 Cloudy with Nearby Thunderstorms 70 21 N/A N/A Calm 29.94 1014 2 2 0.00 0.00
8:56 am 08:56 Cloudy with Light Rain 70 21 N/A N/A VRB 3 6 29.96 1014 2 2 0.00 0.00
9:07 am 09:07 Cloudy with Rain 70 21 N/A N/A SSW 5 7 29.94 1014 1 2 0.00 0.00
9:21 am 09:21 Cloudy with Light Rain 70 21 N/A N/A S 7 11 29.92 1013 2 3 0.00 0.00
9:34 am 09:34 Cloudy with Mist and Fog 70 21 N/A N/A SSE 9 15 29.90 1012 3 5 0.00 0.00
9:56 am 09:56 Cloudy with Haze 72 22 N/A N/A SW 5 7 29.90 1013 5 8 0.00 0.00
10:21 am 10:21 Cloudy 73 23 N/A N/A SSW 9 15 29.91 1013 10 16 0.00 0.00
10:44 am 10:44 Cloudy 73 23 N/A N/A SW 8 13 29.92 1013 10 16 0.00 0.00
10:56 am 10:56 Cloudy 73 23 N/A N/A SW 9 15 29.94 1014 10 16 0.00 0.00
11:29 am 11:29 Cloudy with Light Rain 72 22 N/A N/A SW 9 15 29.97 1015 9 14 0.00 0.00
11:51 am 11:51 Cloudy with Light Rain 72 22 N/A N/A WSW 5 7 29.96 1015 8 13 0.00 0.00
11:56 am 11:56 Cloudy with Rain 72 22 N/A N/A W 5 7 29.98 1015 7 11 0.00 0.00
12:27 pm 12:27 Cloudy N/A N/A N/A W 7 11 N/A 10 16 0.00 0.00
12:56 pm 12:56 Cloudy 73 23 N/A N/A W 3 6 29.97 1015 10 16 0.00 0.00
1:17 pm 13:17 Mostly Cloudy 73 23 N/A N/A WNW 7 11 29.94 1014 10 16 0.00 0.00
1:32 pm 13:32 Mostly Cloudy 75 24 N/A N/A VRB 5 7 29.91 1013 10 16 0.00 0.00
1:56 pm 13:56 Cloudy 77 25 77 25 100 100 S 7 11 29.88 1012 10 16 0.00 0.00
2:26 pm 14:26 Partly Cloudy 79 26 79 26 100 100 SW 7 11 29.86 1011 10 16 0.00 0.00
2:56 pm 14:56 Mostly Cloudy 79 26.1 78 25.6 97 97 WSW 10 17 29.87 1011 10 16 0.00 0.00
3:06 pm 15:06 Mostly Cloudy 81 27 79 26 94 94 SW 13 20 29.87 1011 10 16 0.00 0.00
3:56 pm 15:56 Mostly Cloudy 81 27.2 76 24.4 85 85 W 9 15 29.86 1011 10 16 0.00 0.00
4:38 pm 16:38 Mostly Cloudy 81 27 75 24 84 84 W 9 15 29.86 1011 10 16 0.00 0.00
4:56 pm 16:56 Mostly Cloudy 82 27.8 76 24.4 82 82 WSW 9 15 29.86 1011 10 16 0.00 0.00
5:41 pm 17:41 Cloudy 81 27 79 26 94 94 SW 7 11 29.86 1011 10 16 0.00 0.00
5:56 pm 17:56 Mostly Cloudy 79 26.1 79 26.1 100 100 SW 7 11 29.86 1011 10 16 0.00 0.00
6:20 pm 18:20 Cloudy with Heavy Rain 77 25 77 25 100 100 VRB 3 6 29.85 1011 5 8 0.00 0.00
6:39 pm 18:39 Cloudy with Heavy Rain 75 24 N/A N/A WNW 10 17 29.89 1012 3 4 0.00 0.00
6:44 pm 18:44 Cloudy with Strong Thunderstorms 75 24 N/A N/A WNW 12 19 29.89 1012 1 2 0.00 0.00
6:48 pm 18:48 Cloudy with Strong Thunderstorms 75 24 N/A N/A WSW 7 11 29.89 1012 1 1 0.00 0.00
6:56 pm 18:56 Cloudy with Strong Thunderstorms N/A N/A N/A NNE 3 6 N/A 1 1 0.00 0.00
7:00 pm 19:00 Cloudy with Rain N/A N/A N/A Calm N/A 1 2 0.00 0.00
7:04 pm 19:04 Cloudy with Light Rain N/A N/A N/A S 3 6 N/A 2 3 0.00 0.00
7:07 pm 19:07 Cloudy with Light Rain N/A N/A N/A S 5 7 N/A 7 11 0.00 0.00
7:20 pm 19:20 Partly Cloudy with Nearby Thunderstorms N/A N/A N/A WSW 7 11 N/A 10 16 0.00 0.00
7:42 pm 19:42 Sunny 73 23 N/A N/A SW 6 9 29.88 1012 10 16 0.00 0.00
7:53 pm 19:53 Sunny with Thunderstorms 73 23 N/A N/A SSW 6 9 29.88 1012 10 16 0.00 0.00
7:56 pm 19:56 Partly Cloudy with Thunderstorms N/A N/A N/A SSW 6 9 N/A 10 16 0.00 0.00
8:12 pm 20:12 Mostly Sunny N/A N/A N/A SSE 5 7 N/A 10 16 0.00 0.00
8:56 pm 20:56 Clear N/A N/A N/A SSW 5 7 N/A 9 14 0.00 0.00
9:54 pm 21:54 Mostly Cloudy N/A N/A N/A Calm N/A 10 16 0.00 0.00
9:56 pm 21:56 Mostly Cloudy N/A N/A N/A S 3 6 N/A 10 16 0.00 0.00
10:07 pm 22:07 Partly Cloudy N/A N/A N/A S 5 7 N/A 10 16 0.00 0.00
10:56 pm 22:56 Clear N/A N/A N/A SW 6 9 N/A 10 16 0.00 0.00
11:56 pm 23:56 Clear N/A N/A N/A SW 6 9 N/A 10 16 0.00 0.00

Powered by AerisWeather